FW4008 Weather Reports


time (UTC)temp
F
wind
direction
speed
knots
gust
knots
rain 1hr
in
rain 24hr
in
rain mn
in
humidity
%
barometer
mb
20260504221946 78 349 6.1 12.2 0.00 0.00 0.00 26 1005.9
20260504220946 78 350 5.2 11.3 0.00 0.00 0.00 26 1006.0
20260504220446 78 358 6.1 9.6 0.00 0.00 0.00 26 1006.0
20260504215946 78 350 5.2 10.4 0.00 0.00 0.00 27 1006.0
20260504215446 78 344 5.2 10.4 0.00 0.00 0.00 26 1006.0
20260504214946 78 347 6.1 9.6 0.00 0.00 0.00 27 1005.9
20260504214446 78 355 6.1 12.2 0.00 0.00 0.00 28 1006.1
20260504213446 78 359 6.1 12.2 0.00 0.00 0.00 29 1006.3
20260504212945 78 2 6.1 12.2 0.00 0.00 0.00 28 1006.2
20260504211946 78 336 6.1 13.9 0.00 0.00 0.00 28 1006.1
20260504211446 78 328 7.0 13.9 0.00 0.00 0.00 29 1006.1
20260504210446 78 357 7.0 13.0 0.00 0.00 0.00 29 1006.2
20260504205946 78 346 7.0 12.2 0.00 0.00 0.00 29 1006.1
20260504205446 78 346 6.1 12.2 0.00 0.00 0.00 30 1006.2
20260504204946 78 2 7.0 13.0 0.00 0.00 0.00 30 1006.2
20260504204446 78 4 6.1 13.0 0.00 0.00 0.00 29 1006.2
20260504203446 78 2 7.0 12.2 0.00 0.00 0.00 33 1006.2
20260504202446 77 349 6.1 11.3 0.00 0.00 0.00 33 1006.3
20260504201945 77 355 6.1 12.2 0.00 0.00 0.00 31 1006.3
20260504201446 77 7 6.1 13.9 0.00 0.00 0.00 32 1006.3
20260504200946 77 354 6.1 13.9 0.00 0.00 0.00 33 1006.3
20260504200445 76 345 6.1 11.3 0.00 0.00 0.00 34 1006.4
20260504195946 76 348 6.1 11.3 0.00 0.00 0.00 33 1006.4
20260504195446 76 349 6.1 11.3 0.00 0.00 0.00 33 1006.4
20260504194946 76 350 5.2 10.4 0.00 0.00 0.00 34 1006.4
20260504194446 76 351 6.1 12.2 0.00 0.00 0.00 34 1006.5
20260504193945 76 359 6.1 12.2 0.00 0.00 0.00 34 1006.4
20260504193446 76 14 5.2 13.0 0.00 0.00 0.00 34 1006.5
20260504192446 76 6 5.2 10.4 0.00 0.00 0.00 34 1006.6
20260504191446 75 359 4.3 9.6 0.00 0.00 0.00 37 1006.6
20260504190946 75 11 6.1 11.3 0.00 0.00 0.00 34 1006.7
20260504185946 75 7 6.1 11.3 0.00 0.00 0.00 35 1006.8
20260504185446 74 357 6.1 10.4 0.00 0.00 0.00 35 1006.8
20260504184947 74 356 6.1 10.4 0.00 0.00 0.00 36 1006.8
20260504184446 74 359 6.1 12.2 0.00 0.00 0.00 37 1006.9
20260504182946 74 343 5.2 11.3 0.00 0.00 0.00 36 1006.9
20260504182446 74 6 5.2 10.4 0.00 0.00 0.00 38 1006.9
20260504181946 73 12 3.5 10.4 0.00 0.00 0.00 38 1006.9
20260504181446 74 7 2.6 7.8 0.00 0.00 0.00 37 1006.9
20260504180946 73 1 4.3 10.4 0.00 0.00 0.00 38 1007.0
20260504180446 73 356 5.2 10.4 0.00 0.00 0.00 38 1007.0
20260504175946 73 351 3.5 10.4 0.00 0.00 0.00 40 1006.9
20260504175446 73 8 4.3 10.4 0.00 0.00 0.00 40 1007.0
20260504174945 72 13 4.3 9.6 0.00 0.00 0.00 39 1007.0
20260504173946 72 13 1.7 9.6 0.00 0.00 0.00 40 1007.0
20260504173446 71 23 3.5 10.4 0.00 0.00 0.00 39 1007.1
20260504172946 71 8 4.3 10.4 0.00 0.00 0.00 37 1007.1
20260504172447 71 15 4.3 9.6 0.00 0.00 0.00 40 1007.1
20260504171946 70 22 4.3 10.4 0.00 0.00 0.00 40 1007.2
20260504171447 70 12 2.6 10.4 0.00 0.00 0.00 41 1007.2
20260504170946 70 11 1.7 10.4 0.00 0.00 0.00 42 1007.2
20260504170446 69 15 1.7 10.4 0.00 0.00 0.00 40 1007.2
20260504160446 62 0 0.0 0.0 0.00 0.00 0.00 57 1007.2
20260504150946 56 0 0.0 0.0 0.00 0.00 0.00 71 1007.5
20260504150446 55 0 0.0 0.0 0.00 0.00 0.00 72 1007.5
20260504110446 50 0 0.0 0.0 0.00 0.00 0.00 76 1006.3
20260504100446 54 0 0.0 0.0 0.00 0.00 0.00 69 1006.4
20260504081946 56 150 0.0 3.5 0.00 0.00 0.00 69 1006.1
20260504081446 56 150 0.0 3.5 0.00 0.00 0.00 68 1006.1
20260504080946 56 147 0.0 4.3 0.00 0.00 0.00 66 1006.1
20260504080446 56 148 0.0 4.3 0.00 0.00 0.00 66 1006.1
20260504050446 63 167 0.0 1.7 0.00 0.00 0.00 51 1006.4
20260504045946 63 167 0.0 1.7 0.00 0.00 0.00 52 1006.5
20260504045446 63 0 0.0 0.0 0.00 0.00 0.00 53 1006.5
20260504044946 63 0 0.0 0.0 0.00 0.00 0.00 53 1006.5
20260504044446 63 0 0.0 0.0 0.00 0.00 0.00 54 1006.6
20260504043946 63 0 0.0 0.0 0.00 0.00 0.00 53 1006.5
20260504043446 64 143 0.0 3.5 0.00 0.00 0.00 53 1006.5
20260504042946 64 144 0.9 3.5 0.00 0.00 0.00 52 1006.5
20260504042446 65 144 0.0 5.2 0.00 0.00 0.00 51 1006.5
20260504041947 65 144 0.0 5.2 0.00 0.00 0.00 50 1006.4
20260504041445 66 144 0.0 2.6 0.00 0.00 0.00 48 1006.4
20260504035945 68 142 0.0 0.9 0.00 0.00 0.00 44 1006.3
20260504035446 68 0 0.0 0.0 0.00 0.00 0.00 42 1006.3
20260504034947 68 161 0.0 2.6 0.00 0.00 0.00 40 1006.2
20260504033946 70 220 0.0 3.5 0.00 0.00 0.00 37 1006.2
20260504033446 70 220 0.0 3.5 0.00 0.00 0.00 37 1006.1
20260504032446 71 235 0.0 0.9 0.00 0.00 0.00 35 1006.0
20260504031946 70 235 0.0 0.9 0.00 0.00 0.00 33 1006.0
20260504031446 71 235 0.0 0.9 0.00 0.00 0.00 35 1005.9
20260504030946 72 0 0.0 0.0 0.00 0.00 0.00 33 1006.1
20260504030446 72 235 0.0 0.9 0.00 0.00 0.00 33 1006.1
20260504025946 73 235 0.0 0.9 0.00 0.00 0.00 32 1006.1
20260504025446 73 235 0.0 0.9 0.00 0.00 0.00 30 1006.1
20260504024446 74 235 0.0 1.7 0.00 0.00 0.00 29 1006.1
20260504023446 76 0 0.0 0.0 0.00 0.00 0.00 29 1006.1
20260504022946 76 0 0.0 0.0 0.00 0.00 0.00 29 1006.1
20260504021946 77 0 0.0 0.0 0.00 0.00 0.00 26 1006.2
20260504021445 78 0 0.0 0.0 0.00 0.00 0.00 27 1006.2
20260504020945 78 0 0.0 0.0 0.00 0.00 0.00 27 1006.3
20260504020446 78 0 0.0 0.0 0.00 0.00 0.00 27 1006.3
20260504015946 78 0 0.0 0.0 0.00 0.00 0.00 25 1006.3
20260504015446 79 0 0.0 0.0 0.00 0.00 0.00 24 1006.3
20260504014446 80 0 0.0 0.0 0.00 0.00 0.00 24 1006.5
20260504013446 80 294 0.9 3.5 0.00 0.00 0.00 24 1006.5
20260504012946 80 299 0.0 2.6 0.00 0.00 0.00 24 1006.5
20260504012446 80 268 0.0 2.6 0.00 0.00 0.00 25 1006.6
20260504011946 80 268 0.0 2.6 0.00 0.00 0.00 24 1006.6
20260504010946 81 0 0.0 0.0 0.00 0.00 0.00 24 1006.7
20260504010446 80 0 0.0 0.0 0.00 0.00 0.00 23 1006.6
20260504005446 80 0 0.0 0.0 0.00 0.00 0.00 23 1006.8
20260504004946 80 0 0.0 0.0 0.00 0.00 0.00 24 1006.9
20260504003946 80 219 0.9 6.1 0.00 0.00 0.00 24 1007.0
20260504002945 80 236 0.9 6.1 0.00 0.00 0.00 22 1007.0
20260504001946 80 286 1.7 6.1 0.00 0.00 0.00 23 1007.1
20260504001446 80 267 1.7 6.1 0.00 0.00 0.00 24 1007.2
20260504000946 80 231 0.9 4.3 0.00 0.00 0.00 22 1007.2
20260504000447 80 242 1.7 4.3 0.00 0.00 0.00 23 1007.3
20260503235946 80 239 0.9 4.3 0.00 0.00 0.00 24 1007.3
20260503234946 79 229 1.7 5.2 0.00 0.00 0.00 23 1007.4
20260503234445 80 265 1.7 6.1 0.00 0.00 0.00 22 1007.4
20260503233446 80 296 0.9 7.0 0.00 0.00 0.00 24 1007.5
20260503232946 80 300 0.9 7.0 0.00 0.00 0.00 23 1007.5
20260503231945 79 271 1.7 7.8 0.00 0.00 0.00 23 1007.7
20260503231445 79 286 2.6 7.0 0.00 0.00 0.00 25 1007.9
20260503230946 79 282 3.5 7.0 0.00 0.00 0.00 23 1007.8
20260503230446 79 270 3.5 7.0 0.00 0.00 0.00 25 1007.9
20260503225946 79 271 2.6 7.0 0.00 0.00 0.00 24 1007.9
20260503224946 78 271 0.9 7.0 0.00 0.00 0.00 24 1008.1
20260503223946 78 246 1.7 5.2 0.00 0.00 0.00 22 1008.3
20260503222947 79 316 1.7 6.1 0.00 0.00 0.00 23 1008.4
20260503222446 79 316 1.7 6.1 0.00 0.00 0.00 24 1008.5